Weather History for Truth Or Consequences, NM

Change the Weather History Date:

Saturday, November 3, 2012

  Actual Average Record
Temperature  
Mean Temperature 62 °F -  
Max Temperature 73 °F 68 °F 77 °F (2008)
Min Temperature 51 °F 41 °F 28 °F (2004)
Degree Days  
Heating Degree Days 3    
Month to date heating degree days  
Since 1 July heating degree days  
Growing Degree Days 12 (Base 50)    
Moisture  
Dew Point 25 °F    
Average Humidity 24    
Maximum Humidity 38    
Minimum Humidity 10    
Precipitation  
Precipitation 0.00 in - 0.07 in (2000)
Month to date precipitation  
Year to date precipitation  
Sea Level Pressure  
Sea Level Pressure 29.95 in    
Wind  
Wind Speed 8 mph (NNW)    
Max Wind Speed 13 mph    
Max Gust Speed 17 mph    
Visibility 10 miles    
Events      
T = Trace of Precipitation, MM = Missing Value Source: NWS Daily Summary

Daily Weather History Graph

Daily Weather History Graph

Search for Another Location

Airport:

Trip Planner

Search our weather history database for the weather conditions in past years. The results will help you decide how hot, cold, wet, or windy it might be!

Date:

Astronomy

Nov. 03, 2012 Rise Set
Actual Time 7:29 AM MDT 6:15 PM MDT
Civil Twilight 7:03 AM MDT 6:40 PM MDT
Nautical Twilight 6:34 AM MDT 7:10 PM MDT
Astronomical Twilight 6:05 AM MDT 7:39 PM MDT
Moon 10:03 PM MDT (11/3) 11:30 AM MDT (11/3)
Length of Visible Light 11h 36m
Length of Day
10h 45m
Waning Gibbous, 80% of the Moon is Illuminated
Nov 3
Waning Gibbous
Nov 6
Last Quarter
Nov 13
New
Nov 20
First Quarter
Nov 28
Full

Hourly Weather History & Observations

Time (MDT) Temp. Dew Point Humidity Pressure Visibility Wind Dir Wind Speed Gust Speed Precip Events Conditions
12:53 AM 61.0 °F 24.1 °F 24% 29.85 in 10.0 mi NW 9.2 mph - N/A   Clear
1:53 AM 60.1 °F 25.0 °F 26% 29.85 in 10.0 mi NW 9.2 mph - N/A   Clear
2:53 AM 59.0 °F 26.1 °F 28% 29.86 in 10.0 mi NNW 9.2 mph - N/A   Clear
3:53 AM 57.9 °F 26.1 °F 30% 29.87 in 10.0 mi NW 9.2 mph - N/A   Clear
4:53 AM 53.1 °F 26.1 °F 35% 29.91 in 10.0 mi North 5.8 mph - N/A   Clear
5:53 AM 54.0 °F 24.1 °F 31% 29.93 in 10.0 mi NNW 5.8 mph - N/A   Clear
6:53 AM 52.0 °F 19.9 °F 28% 29.96 in 10.0 mi North 5.8 mph - N/A   Clear
7:53 AM 52.0 °F 19.0 °F 27% 29.99 in 10.0 mi NNE 4.6 mph - N/A   Clear
8:53 AM 57.9 °F 21.0 °F 24% 30.00 in 10.0 mi North 11.5 mph 17.3 mph N/A   Clear
9:53 AM 61.0 °F 23.0 °F 23% 30.01 in 10.0 mi North 12.7 mph - N/A   Clear
10:53 AM 64.9 °F 24.1 °F 21% 30.00 in 10.0 mi NE 8.1 mph - N/A   Clear
11:53 AM 68.0 °F 24.1 °F 19% 29.99 in 10.0 mi NNE 11.5 mph - N/A   Clear
12:53 PM 70.0 °F 25.0 °F 18% 29.95 in 10.0 mi NE 3.5 mph - N/A   Clear
1:53 PM 73.0 °F 27.0 °F 18% 29.92 in 10.0 mi ENE 6.9 mph - N/A   Clear
2:53 PM 73.0 °F 28.9 °F 20% 29.91 in 10.0 mi South 8.1 mph - N/A   Clear
3:53 PM 73.0 °F 28.0 °F 19% 29.91 in 10.0 mi SSW 6.9 mph - N/A   Partly Cloudy
4:53 PM 73.0 °F 28.0 °F 19% 29.92 in 10.0 mi Calm Calm - N/A   Scattered Clouds
5:53 PM 71.1 °F 28.0 °F 20% 29.93 in 10.0 mi Variable 4.6 mph - N/A   Mostly Cloudy
6:53 PM 66.9 °F 28.0 °F 23% 29.95 in 10.0 mi SSW 4.6 mph - N/A   Clear
7:53 PM 63.0 °F 28.0 °F 27% 29.98 in 10.0 mi Calm Calm - N/A   Scattered Clouds
8:53 PM 57.0 °F 27.0 °F 32% 29.99 in 10.0 mi WNW 6.9 mph - N/A   Partly Cloudy
9:53 PM 57.0 °F 28.0 °F 33% 30.00 in 10.0 mi NW 5.8 mph - N/A   Clear
10:53 PM 53.1 °F 27.0 °F 37% 30.01 in 10.0 mi NW 8.1 mph - N/A   Clear
11:53 PM 51.1 °F 26.1 °F 38% 30.01 in 10.0 mi WNW 4.6 mph - N/A   Clear